EJU45PK EHAM-LPMA

Flight info

Callsign EJU45PK
Flight time N/A
Altitude 23000
Route WOODY N872 CIV/N0440F340 DCT MEDIL/N0438F330 DCT KOVIN DCT NIDUV DCT KIHVI DCT PON DCT DITAL DCT GODIX DCT DIDAK DCT KURIS/N0445F350 DCT TERPO DCT ERIGA DCT FUJTI DCT BAKUP DCT BATAX DCT BUSEN DCT GALPA DCT RAKUN
Aircraft A320/M-SDE2E3FGHIJ1RWXYZ/LB1

Departure

Time 2026-04-17 12:00
Airport Amsterdam Airport Schiphol (EHAM)

Arrival

Time N/A
Airport Cristiano Ronaldo International Airport (LPMA)
Time Latitude Longitude Altitude Speed Heading
2026-04-17 11:34 52.31050 4.75514 -1 ft 0 kts 148°
2026-04-17 11:48 52.31062 4.75501 -1 ft 4 kts 141°
2026-04-17 11:49 52.31079 4.75470 -1 ft 4 kts 108°
2026-04-17 11:49 52.31079 4.75436 -1 ft 2 kts 58°
2026-04-17 11:49 52.31079 4.75435 -1 ft 0 kts 58°
2026-04-17 11:51 52.31091 4.75467 -1 ft 2 kts 58°
2026-04-17 11:51 52.31092 4.75469 -1 ft 0 kts 58°
2026-04-17 11:52 52.31117 4.75492 -1 ft 9 kts 17°
2026-04-17 11:53 52.31184 4.75493 -1 ft 9 kts 358°
2026-04-17 11:53 52.31253 4.75487 -1 ft 12 kts 356°
2026-04-17 11:53 52.31330 4.75480 -1 ft 10 kts 356°
2026-04-17 11:53 52.31393 4.75474 -1 ft 9 kts 359°
2026-04-17 11:54 52.31431 4.75594 -1 ft 17 kts 87°
2026-04-17 11:54 52.31439 4.75804 -1 ft 19 kts 85°
2026-04-17 11:54 52.31448 4.76020 -1 ft 19 kts 86°
2026-04-17 11:54 52.31456 4.76238 -1 ft 19 kts 86°
2026-04-17 11:55 52.31463 4.76461 -1 ft 20 kts 87°
2026-04-17 11:55 52.31471 4.76686 -1 ft 20 kts 86°
2026-04-17 11:55 52.31479 4.76915 -1 ft 20 kts 87°
2026-04-17 11:55 52.31483 4.77068 -1 ft 20 kts 89°
2026-04-17 11:56 52.31425 4.77262 -1 ft 19 kts 132°
2026-04-17 11:56 52.31336 4.77430 -1 ft 20 kts 133°
2026-04-17 11:56 52.31174 4.77499 -1 ft 19 kts 182°
2026-04-17 11:56 52.31045 4.77487 -1 ft 19 kts 184°
2026-04-17 11:57 52.30913 4.77475 -1 ft 19 kts 183°
2026-04-17 11:57 52.30788 4.77462 -1 ft 18 kts 184°
2026-04-17 11:57 52.30671 4.77458 -1 ft 14 kts 165°
2026-04-17 11:57 52.30597 4.77517 -1 ft 10 kts 153°
2026-04-17 11:58 52.30543 4.77563 -1 ft 8 kts 152°
2026-04-17 11:58 52.30491 4.77608 -1 ft 9 kts 152°
2026-04-17 11:58 52.30439 4.77640 -1 ft 7 kts 177°
2026-04-17 11:58 52.30405 4.77612 -1 ft 5 kts 231°
2026-04-17 11:59 52.30393 4.77582 -2 ft 2 kts 236°
2026-04-17 11:59 52.30364 4.77506 -2 ft 28 kts 238°
2026-04-17 11:59 52.30127 4.76894 -2 ft 99 kts 238°
2026-04-17 12:00 52.29645 4.75633 -1 ft 159 kts 238°
2026-04-17 12:00 52.28982 4.73915 173 ft 191 kts 239°
2026-04-17 12:00 52.28289 4.72082 854 ft 192 kts 238°
2026-04-17 12:00 52.27548 4.70160 1443 ft 205 kts 238°
2026-04-17 12:01 52.26619 4.68307 1977 ft 218 kts 214°
2026-04-17 12:01 52.25203 4.67504 2814 ft 218 kts 179°
2026-04-17 12:01 52.23654 4.67767 3450 ft 231 kts 172°
2026-04-17 12:01 52.22154 4.68691 3957 ft 233 kts 138°
2026-04-17 12:02 52.21062 4.70659 4534 ft 236 kts 133°
2026-04-17 12:02 52.19793 4.72376 5092 ft 239 kts 147°
2026-04-17 12:02 52.18361 4.73754 5714 ft 240 kts 152°
2026-04-17 12:02 52.16827 4.74847 6305 ft 244 kts 166°
2026-04-17 12:03 52.15128 4.75528 6655 ft 259 kts 167°
2026-04-17 12:03 52.13326 4.76214 6996 ft 274 kts 167°
2026-04-17 12:03 52.12084 4.76684 7358 ft 278 kts 167°
2026-04-17 12:03 52.10181 4.77405 8008 ft 281 kts 167°
2026-04-17 12:04 52.08261 4.78137 8653 ft 284 kts 167°
2026-04-17 12:04 52.06269 4.78899 9300 ft 286 kts 167°
2026-04-17 12:04 52.04688 4.79509 9804 ft 289 kts 167°
2026-04-17 12:04 52.02739 4.80263 10313 ft 296 kts 167°
2026-04-17 12:05 52.00668 4.80924 10569 ft 311 kts 175°
2026-04-17 12:05 51.98462 4.80819 10829 ft 326 kts 190°
2026-04-17 12:05 51.96250 4.79757 11084 ft 339 kts 205°
2026-04-17 12:05 51.94114 4.78060 11525 ft 346 kts 206°
2026-04-17 12:06 51.92629 4.76883 11919 ft 348 kts 206°
2026-04-17 12:06 51.90830 4.75503 12300 ft 351 kts 205°
2026-04-17 12:06 51.88625 4.73806 12884 ft 353 kts 206°
2026-04-17 12:06 51.86411 4.72073 13433 ft 356 kts 206°
2026-04-17 12:07 51.84196 4.70330 13966 ft 358 kts 206°
2026-04-17 12:07 51.81926 4.68550 14485 ft 361 kts 206°
2026-04-17 12:07 51.79647 4.66772 15001 ft 364 kts 206°
2026-04-17 12:07 51.77353 4.64992 15496 ft 367 kts 206°
2026-04-17 12:08 51.75035 4.63194 15983 ft 369 kts 206°
2026-04-17 12:08 51.72727 4.61404 16451 ft 372 kts 206°
2026-04-17 12:08 51.70408 4.59603 16918 ft 374 kts 206°
2026-04-17 12:08 51.68048 4.57779 17373 ft 377 kts 206°
2026-04-17 12:09 51.66072 4.56327 17742 ft 379 kts 203°
2026-04-17 12:09 51.63885 4.54866 18108 ft 381 kts 202°
2026-04-17 12:09 51.61449 4.53119 18536 ft 384 kts 206°
2026-04-17 12:09 51.59052 4.51198 18972 ft 386 kts 207°
2026-04-17 12:10 51.56673 4.49222 19403 ft 388 kts 207°
2026-04-17 12:10 51.54248 4.47217 19825 ft 391 kts 207°
2026-04-17 12:10 51.51807 4.45247 20249 ft 393 kts 206°
2026-04-17 12:10 51.49336 4.43309 20648 ft 396 kts 206°
2026-04-17 12:11 51.46846 4.41396 21052 ft 398 kts 206°
2026-04-17 12:11 51.44333 4.39488 21447 ft 401 kts 205°
2026-04-17 12:11 51.41807 4.37578 21818 ft 403 kts 205°
2026-04-17 12:12 51.36712 4.33715 22534 ft 407 kts 205°
2026-04-17 12:12 51.34145 4.31766 22879 ft 409 kts 206°
2026-04-17 12:12 51.31565 4.29807 23215 ft 411 kts 205°
2026-04-17 12:12 51.28969 4.27839 23533 ft 413 kts 206°
2026-04-17 12:13 51.26368 4.25865 23850 ft 415 kts 206°
2026-04-17 12:13 51.23754 4.23880 24156 ft 417 kts 206°
2026-04-17 12:13 51.21124 4.21892 24452 ft 419 kts 205°
2026-04-17 12:13 51.18479 4.19895 24737 ft 421 kts 205°
2026-04-17 12:14 51.15788 4.17997 25017 ft 423 kts 200°
2026-04-17 12:14 51.12999 4.16480 25283 ft 425 kts 199°
2026-04-17 12:14 51.10198 4.14954 25534 ft 426 kts 199°
2026-04-17 12:14 51.07386 4.13411 25794 ft 428 kts 199°
2026-04-17 12:15 51.04568 4.11860 25968 ft 429 kts 199°
2026-04-17 12:15 51.01790 4.10331 26010 ft 415 kts 199°
2026-04-17 12:15 50.99070 4.08831 26010 ft 413 kts 199°
2026-04-17 12:15 50.96357 4.07339 26010 ft 413 kts 199°
2026-04-17 12:16 50.93646 4.05860 26008 ft 413 kts 199°
2026-04-17 12:16 50.90924 4.04384 26010 ft 413 kts 199°
2026-04-17 12:16 50.88217 4.02922 26008 ft 413 kts 199°
2026-04-17 12:16 50.85516 4.01376 26009 ft 413 kts 201°
2026-04-17 12:17 50.82840 3.99702 26008 ft 412 kts 202°
2026-04-17 12:17 50.80189 3.97960 26009 ft 412 kts 203°
2026-04-17 12:17 50.77545 3.96200 26011 ft 413 kts 203°
2026-04-17 12:17 50.74894 3.94448 26013 ft 413 kts 202°
2026-04-17 12:18 50.72239 3.92718 26017 ft 413 kts 202°
2026-04-17 12:18 50.69577 3.91006 26018 ft 413 kts 202°
2026-04-17 12:18 50.66919 3.89308 26020 ft 413 kts 202°
2026-04-17 12:18 50.64275 3.87626 26023 ft 413 kts 202°
2026-04-17 12:19 50.61609 3.85942 26024 ft 413 kts 202°
2026-04-17 12:19 50.59835 3.84824 26025 ft 413 kts 202°
2026-04-17 12:19 50.56268 3.82569 26024 ft 413 kts 202°
2026-04-17 12:19 50.53619 3.80823 26023 ft 413 kts 203°
2026-04-17 12:20 50.50979 3.79019 26024 ft 413 kts 204°
2026-04-17 12:20 50.48381 3.77209 26026 ft 412 kts 204°
2026-04-17 12:20 50.45761 3.75380 26023 ft 412 kts 204°
2026-04-17 12:20 50.43137 3.73563 26026 ft 412 kts 204°
2026-04-17 12:21 50.40505 3.71764 26026 ft 412 kts 204°
2026-04-17 12:21 50.37873 3.69977 26023 ft 412 kts 204°
2026-04-17 12:21 50.35241 3.68193 26024 ft 412 kts 204°
2026-04-17 12:21 50.32575 3.66388 26021 ft 412 kts 204°
2026-04-17 12:22 50.29974 3.64628 26021 ft 412 kts 204°
2026-04-17 12:22 50.27334 3.62832 26021 ft 412 kts 204°
2026-04-17 12:22 50.24700 3.61049 26020 ft 412 kts 204°
2026-04-17 12:22 50.22066 3.59276 26020 ft 412 kts 203°
2026-04-17 12:23 50.19428 3.57508 26020 ft 412 kts 203°
2026-04-17 12:23 50.16792 3.55747 26020 ft 412 kts 203°
2026-04-17 12:23 50.14148 3.53978 26019 ft 412 kts 204°
2026-04-17 12:23 50.11491 3.52197 26011 ft 421 kts 203°
2026-04-17 12:24 50.08772 3.50377 26010 ft 429 kts 203°
2026-04-17 12:24 50.06004 3.48525 26011 ft 438 kts 203°
2026-04-17 12:24 50.03180 3.46642 26010 ft 445 kts 203°
2026-04-17 12:24 50.00310 3.44729 26009 ft 452 kts 203°
2026-04-17 12:25 49.97404 3.42792 26008 ft 458 kts 203°
2026-04-17 12:25 49.94456 3.40831 26009 ft 464 kts 203°
2026-04-17 12:25 49.91462 3.38842 26009 ft 469 kts 203°
2026-04-17 12:25 49.88448 3.36841 26009 ft 473 kts 203°
2026-04-17 12:26 49.85415 3.34830 26008 ft 476 kts 203°
2026-04-17 12:26 49.82364 3.32811 26008 ft 478 kts 203°
2026-04-17 12:26 49.79298 3.30787 26009 ft 480 kts 203°
2026-04-17 12:26 49.76223 3.28760 26008 ft 481 kts 203°
2026-04-17 12:27 49.73134 3.26723 26009 ft 483 kts 203°
2026-04-17 12:27 49.70040 3.24679 26010 ft 483 kts 203°
2026-04-17 12:27 49.66944 3.22639 26009 ft 484 kts 203°
2026-04-17 12:27 49.63840 3.20609 26009 ft 484 kts 203°
2026-04-17 12:28 49.60736 3.18584 26010 ft 485 kts 203°
2026-04-17 12:28 49.57624 3.16552 26009 ft 485 kts 203°
2026-04-17 12:28 49.54521 3.14524 26009 ft 485 kts 203°
2026-04-17 12:28 49.51484 3.12272 26006 ft 485 kts 212°
2026-04-17 12:29 49.48804 3.09140 26009 ft 485 kts 224°
2026-04-17 12:29 49.46621 3.05216 26010 ft 484 kts 236°
2026-04-17 12:29 49.44905 3.00743 26011 ft 484 kts 240°
2026-04-17 12:29 49.43243 2.96220 26009 ft 484 kts 240°
2026-04-17 12:30 49.41600 2.91774 26008 ft 485 kts 240°
2026-04-17 12:30 49.39909 2.87230 26009 ft 485 kts 240°
2026-04-17 12:30 49.38250 2.82787 26010 ft 485 kts 240°
2026-04-17 12:30 49.36568 2.78296 26009 ft 485 kts 240°
2026-04-17 12:31 49.34883 2.73807 26009 ft 485 kts 240°
2026-04-17 12:31 49.33219 2.69323 26010 ft 485 kts 241°
2026-04-17 12:31 49.31598 2.64783 26010 ft 485 kts 242°
2026-04-17 12:31 49.30011 2.60224 26010 ft 485 kts 242°
2026-04-17 12:32 49.28440 2.55665 26008 ft 485 kts 242°
2026-04-17 12:32 49.26841 2.51031 26008 ft 485 kts 242°
2026-04-17 12:32 49.25285 2.46552 26010 ft 485 kts 242°
2026-04-17 12:32 49.23670 2.41959 26009 ft 485 kts 242°
2026-04-17 12:33 49.22057 2.37427 26009 ft 485 kts 241°
2026-04-17 12:33 49.20436 2.32895 26010 ft 485 kts 241°
2026-04-17 12:33 49.18812 2.28374 26008 ft 485 kts 241°
2026-04-17 12:33 49.17161 2.23854 26010 ft 485 kts 240°
2026-04-17 12:34 49.15501 2.19375 26008 ft 485 kts 240°
2026-04-17 12:34 49.13827 2.14889 26009 ft 485 kts 240°
2026-04-17 12:34 49.12152 2.10412 26008 ft 485 kts 240°
2026-04-17 12:34 49.10479 2.05939 26009 ft 485 kts 240°
2026-04-17 12:35 49.08932 2.01376 26008 ft 485 kts 245°
2026-04-17 12:35 49.07537 1.96701 26009 ft 485 kts 245°
2026-04-17 12:35 49.06139 1.92019 26009 ft 485 kts 245°
2026-04-17 12:35 49.04729 1.87321 26010 ft 485 kts 245°
2026-04-17 12:37 48.95247 1.56084 26010 ft 485 kts 245°
2026-04-17 12:37 48.93852 1.51515 26009 ft 485 kts 245°
2026-04-17 12:38 48.92432 1.46866 26009 ft 485 kts 245°
2026-04-17 12:38 48.91003 1.42193 26008 ft 485 kts 245°
2026-04-17 12:38 48.89577 1.37546 26009 ft 485 kts 245°
2026-04-17 12:38 48.88147 1.32894 26009 ft 485 kts 245°
2026-04-17 12:39 48.86716 1.28255 26009 ft 485 kts 245°
2026-04-17 12:39 48.85278 1.23609 26009 ft 486 kts 245°
2026-04-17 12:39 48.83840 1.18972 26009 ft 486 kts 245°
2026-04-17 12:39 48.82398 1.14336 26009 ft 486 kts 245°
2026-04-17 12:40 48.80957 1.09694 26009 ft 486 kts 245°
2026-04-17 12:40 48.79518 1.05055 26009 ft 486 kts 245°
2026-04-17 12:40 48.78074 1.00413 26010 ft 486 kts 245°
2026-04-17 12:40 48.76628 0.95780 26010 ft 486 kts 245°
2026-04-17 12:41 48.75178 0.91155 26010 ft 486 kts 244°
2026-04-17 12:41 48.73562 0.86655 26011 ft 486 kts 238°
2026-04-17 12:41 48.71798 0.82293 26008 ft 486 kts 238°
2026-04-17 12:41 48.70031 0.77929 26010 ft 486 kts 238°
2026-04-17 12:42 48.68261 0.73568 26009 ft 486 kts 238°
2026-04-17 12:42 48.66488 0.69198 26008 ft 486 kts 238°
2026-04-17 12:42 48.64719 0.64833 26009 ft 486 kts 238°
2026-04-17 12:42 48.62946 0.60468 26009 ft 486 kts 238°
2026-04-17 12:43 48.61195 0.56171 26008 ft 486 kts 238°
2026-04-17 12:43 48.59417 0.51821 26008 ft 486 kts 238°
2026-04-17 12:43 48.57630 0.47465 26008 ft 486 kts 238°
2026-04-17 12:43 48.55853 0.43134 26009 ft 486 kts 238°
2026-04-17 12:44 48.54071 0.38793 26010 ft 486 kts 238°
2026-04-17 12:44 48.52287 0.34453 26009 ft 486 kts 238°
2026-04-17 12:44 48.50502 0.30118 26008 ft 486 kts 238°
2026-04-17 12:44 48.48719 0.25788 26009 ft 486 kts 238°
2026-04-17 12:45 48.46929 0.21455 26009 ft 486 kts 238°
2026-04-17 12:45 48.45140 0.17136 26009 ft 486 kts 238°
2026-04-17 12:45 48.43346 0.12808 26009 ft 486 kts 238°
2026-04-17 12:45 48.41557 0.08497 26009 ft 486 kts 238°
2026-04-17 12:46 48.39763 0.04179 26009 ft 486 kts 238°
2026-04-17 12:46 48.37967 -0.00129 26010 ft 486 kts 238°
2026-04-17 12:46 48.36166 -0.04427 26008 ft 486 kts 237°
2026-04-17 12:46 48.34280 -0.08642 26010 ft 486 kts 235°
2026-04-17 12:47 48.32297 -0.12749 26010 ft 486 kts 233°
2026-04-17 12:47 48.30245 -0.16790 26008 ft 486 kts 232°
2026-04-17 12:47 48.28166 -0.20796 26008 ft 486 kts 232°
2026-04-17 12:47 48.26085 -0.24806 26009 ft 486 kts 232°
2026-04-17 12:48 48.24022 -0.28820 26008 ft 487 kts 232°
2026-04-17 12:48 48.21958 -0.32855 26010 ft 487 kts 232°
2026-04-17 12:48 48.19927 -0.36836 26009 ft 487 kts 233°
2026-04-17 12:48 48.17868 -0.40875 26010 ft 486 kts 233°
2026-04-17 12:49 48.15814 -0.44900 26008 ft 486 kts 233°
2026-04-17 12:49 48.13756 -0.48923 26010 ft 486 kts 232°
2026-04-17 12:49 48.11702 -0.52931 26008 ft 486 kts 232°
2026-04-17 12:49 48.09636 -0.56944 26010 ft 486 kts 232°
2026-04-17 12:50 48.07573 -0.60943 26010 ft 486 kts 232°
2026-04-17 12:50 48.05506 -0.64941 26009 ft 486 kts 232°
2026-04-17 12:50 48.03439 -0.68935 26009 ft 486 kts 232°
2026-04-17 12:50 48.01372 -0.72930 26008 ft 486 kts 232°
2026-04-17 12:51 47.99303 -0.76924 26008 ft 486 kts 232°
2026-04-17 12:51 47.97237 -0.80908 26010 ft 486 kts 232°
2026-04-17 12:51 47.95168 -0.84897 26009 ft 486 kts 232°
2026-04-17 12:51 47.93105 -0.88867 26011 ft 486 kts 232°
2026-04-17 12:52 47.91025 -0.92859 26008 ft 486 kts 232°
2026-04-17 12:52 47.88954 -0.96828 26009 ft 486 kts 232°
2026-04-17 12:52 47.86877 -1.00801 26009 ft 486 kts 232°
2026-04-17 12:52 47.84798 -1.04764 26010 ft 486 kts 232°
2026-04-17 12:53 47.82716 -1.08729 26009 ft 486 kts 232°
2026-04-17 12:53 47.80668 -1.12633 26010 ft 486 kts 232°
2026-04-17 12:53 47.78562 -1.16654 26008 ft 486 kts 232°
2026-04-17 12:53 47.76512 -1.20561 26009 ft 486 kts 232°
2026-04-17 12:54 47.74427 -1.24518 26008 ft 486 kts 232°
2026-04-17 12:54 47.72342 -1.28465 26010 ft 486 kts 232°
2026-04-17 12:54 47.70251 -1.32409 26009 ft 486 kts 232°
2026-04-17 12:54 47.68153 -1.36355 26008 ft 486 kts 232°
2026-04-17 12:55 47.66063 -1.40288 26009 ft 486 kts 232°
2026-04-17 12:55 47.63973 -1.44224 26009 ft 486 kts 232°
2026-04-17 12:55 47.61877 -1.48161 26009 ft 486 kts 232°
2026-04-17 12:55 47.59782 -1.52085 26009 ft 486 kts 231°
2026-04-17 12:56 47.57623 -1.55930 26008 ft 486 kts 229°
2026-04-17 12:56 47.55391 -1.59676 26008 ft 486 kts 228°
2026-04-17 12:56 47.53102 -1.63365 26010 ft 486 kts 227°
2026-04-17 12:56 47.50798 -1.67018 26010 ft 486 kts 227°
2026-04-17 12:57 47.48495 -1.70677 26009 ft 486 kts 227°
2026-04-17 12:57 47.46207 -1.74354 26009 ft 486 kts 227°
2026-04-17 12:57 47.43937 -1.78048 26010 ft 486 kts 228°
2026-04-17 12:57 47.41674 -1.81759 26009 ft 486 kts 228°
2026-04-17 12:58 47.39415 -1.85468 26009 ft 486 kts 228°
2026-04-17 12:58 47.37157 -1.89175 26010 ft 486 kts 228°
2026-04-17 12:58 47.34772 -1.92703 26007 ft 486 kts 219°
2026-04-17 12:58 47.31998 -1.95521 26011 ft 486 kts 211°
2026-04-17 12:59 47.29107 -1.98111 26009 ft 486 kts 211°
2026-04-17 12:59 47.26212 -2.00691 26009 ft 486 kts 211°
2026-04-17 12:59 47.23318 -2.03263 26010 ft 486 kts 211°
2026-04-17 12:59 47.20432 -2.05830 26010 ft 486 kts 211°
2026-04-17 13:00 47.17534 -2.08409 26010 ft 486 kts 211°
2026-04-17 13:00 47.14645 -2.10984 26008 ft 486 kts 211°
2026-04-17 13:00 47.11751 -2.13563 26010 ft 486 kts 211°
2026-04-17 13:00 47.08887 -2.16106 26009 ft 486 kts 211°
2026-04-17 13:01 47.05998 -2.18663 26009 ft 486 kts 211°
2026-04-17 13:01 47.05013 -2.19534 26010 ft 486 kts 211°